{"data":{"norad_id":59133,"intl_designator":"2024-043AM","name":"GHOST-4","alt_names":[],"object_type":"PAYLOAD","status":"ACTIVE","operator":null,"country":"US","launch_date":"2024-03-04","launch_site_code":"AFWTR","launch_vehicle":null,"mission":null,"orbit_class":"UNKNOWN","rcs_meters":null,"size_class":null,"mass_kg":null,"dimensions":null,"purposes":[],"wikipedia_slug":null,"has_3d_model":false,"image_url":null,"decayed_at":null,"tle_current":{"epoch":"2026-05-25T03:45:15.475104Z","epoch_age_seconds":57606,"freshness":"FRESH","line1":"1 59133U 24043AM  26145.15642911  .00012997  00000+0  29989-3 0  9998","line2":"2 59133  97.5575 289.2470 0006845 300.5013  59.5558 15.42670506123984","mean_motion":15.42670506,"eccentricity":0.0006845,"inclination_deg":97.5575,"raan_deg":289.247,"arg_perigee_deg":300.5013,"mean_anomaly_deg":59.5558,"bstar":0.00029989,"rev_number":12398,"period_min":93.344625077055,"perigee_km":433.56563678118,"apogee_km":442.89724517688,"semimajor_km":6816.368440979,"source":"CELESTRAK","updated_at":"2026-05-25T13:38:01.197482Z"}}}